Simultaneous Nadir Overpasses (SNOs) Predictions

Prediction of SNOs between LANDSAT-8 and METOP-B Satellite Orbit:

Table of predicted SNOs for the next 14.0 days since TLE Epoch: 1/8/2016
Index Date (LANDSAT-8) Time (LANDSAT-8) Lat,Lon (LANDSAT-8) SZA (LANDSAT-8 ) Date (METOP-B) Time (METOP-B) Lat,Lon (METOP-B) SZA (METOP-B ) Distance(km) Time Diff (sec)
1 01/10/2016 07:06:44 81.17, 113.89 105.01 01/10/2016 07:05:34 81.18, 114.01 105.00 2.14 70
2 01/10/2016 07:56:10 -81.19, -78.18 74.96 01/10/2016 07:56:14 -81.19, -78.24 74.96 1.01 4
3 01/13/2016 02:41:00 81.18,-179.58 104.56 01/13/2016 02:39:55 81.17,-179.71 104.52 2.42 65
4 01/13/2016 03:30:26 -81.20, -11.62 75.41 01/13/2016 03:30:34 -81.20, -11.57 75.40 0.76 8
5 01/15/2016 22:15:15 81.18,-113.11 104.05 01/15/2016 22:14:14 81.18,-113.09 104.03 0.38 61
6 01/15/2016 23:04:41 -81.20, 54.88 75.91 01/15/2016 23:04:53 -81.21, 55.06 75.89 3.13 12
7 01/18/2016 17:49:31 81.18, -46.71 103.48 01/18/2016 17:48:35 81.17, -46.88 103.44 2.89 56
8 01/18/2016 18:38:57 -81.20, 121.30 76.48 01/18/2016 18:39:14 -81.20, 121.28 76.48 0.48 17
9 01/21/2016 13:23:47 81.17, 19.62 102.85 01/21/2016 13:22:55 81.18, 19.69 102.84 1.24 52




NCC Satellite Simultaneous Nadir Overpasses (SNOs) Prediction Service
